DLH227 UKBB-LROP

Flight info

Callsign DLH227
Flight time N/A
Altitude 38000
Route VESEL DCT RIMOS/K0854F370 DCT BUKOV/N0461F370 DCT DENAK
Aircraft CRJ9/M-SDFGIRWY/S

Departure

Time 2026-05-07 17:24
Airport Boryspil International Airport (UKBB)

Arrival

Time N/A
Airport Bucharest Henri Coandă International Airport (LROP)
Time Latitude Longitude Altitude Speed Heading
2026-05-07 16:52 50.35120 30.90125 407 ft 0 kts 93°
2026-05-07 17:12 50.35120 30.90124 410 ft 1 kts 93°
2026-05-07 17:12 50.35121 30.90087 409 ft 4 kts 93°
2026-05-07 17:13 50.35122 30.90045 406 ft 4 kts 93°
2026-05-07 17:13 50.35124 30.90003 406 ft 4 kts 93°
2026-05-07 17:13 50.35125 30.89961 406 ft 4 kts 93°
2026-05-07 17:13 50.35126 30.89919 409 ft 3 kts 93°
2026-05-07 17:14 50.35126 30.89915 410 ft 0 kts 93°
2026-05-07 17:18 50.35125 30.89946 407 ft 6 kts 93°
2026-05-07 17:18 50.35135 30.89999 410 ft 4 kts 35°
2026-05-07 17:19 50.35178 30.90015 410 ft 8 kts
2026-05-07 17:19 50.35249 30.90021 411 ft 11 kts
2026-05-07 17:19 50.35332 30.90028 410 ft 12 kts
2026-05-07 17:19 50.35399 30.90032 413 ft 9 kts
2026-05-07 17:20 50.35450 30.90080 411 ft 9 kts 60°
2026-05-07 17:20 50.35457 30.90181 413 ft 10 kts 91°
2026-05-07 17:20 50.35489 30.90270 413 ft 10 kts 28°
2026-05-07 17:20 50.35560 30.90287 410 ft 11 kts
2026-05-07 17:21 50.35640 30.90293 412 ft 12 kts
2026-05-07 17:21 50.35727 30.90299 412 ft 13 kts
2026-05-07 17:21 50.35821 30.90306 410 ft 14 kts
2026-05-07 17:21 50.35922 30.90312 413 ft 15 kts
2026-05-07 17:22 50.36028 30.90332 413 ft 16 kts 22°
2026-05-07 17:22 50.36087 30.90463 414 ft 15 kts 88°
2026-05-07 17:22 50.36041 30.90595 417 ft 14 kts 144°
2026-05-07 17:22 50.35964 30.90638 415 ft 0 kts 178°
2026-05-07 17:23 50.35963 30.90638 418 ft 3 kts 178°
2026-05-07 17:23 50.35713 30.90621 416 ft 73 kts 183°
2026-05-07 17:24 50.34975 30.90569 420 ft 135 kts 182°
2026-05-07 17:24 50.34286 30.90518 505 ft 161 kts 183°
2026-05-07 17:24 50.32630 30.90358 1200 ft 192 kts 186°
2026-05-07 17:24 50.31737 30.90235 1820 ft 195 kts 187°
2026-05-07 17:25 50.30395 30.90017 2859 ft 196 kts 185°
2026-05-07 17:25 50.29019 30.89927 3827 ft 200 kts 184°
2026-05-07 17:25 50.27610 30.89856 4724 ft 205 kts 184°
2026-05-07 17:25 50.26177 30.89784 5602 ft 208 kts 184°
2026-05-07 17:26 50.24718 30.89714 6439 ft 213 kts 183°
2026-05-07 17:26 50.23225 30.89635 7207 ft 217 kts 184°
2026-05-07 17:26 50.21709 30.89442 7930 ft 221 kts 198°
2026-05-07 17:26 50.20357 30.88313 8640 ft 222 kts 213°
2026-05-07 17:27 50.19034 30.87024 9395 ft 225 kts 213°
2026-05-07 17:27 50.17713 30.85720 10103 ft 228 kts 213°
2026-05-07 17:27 50.16370 30.84371 10748 ft 230 kts 213°
2026-05-07 17:27 50.15023 30.82987 11385 ft 232 kts 214°
2026-05-07 17:28 50.13666 30.81567 11983 ft 236 kts 214°
2026-05-07 17:28 50.12287 30.80164 12621 ft 237 kts 213°
2026-05-07 17:28 50.10873 30.78799 13201 ft 241 kts 212°
2026-05-07 17:28 50.09404 30.77408 13463 ft 259 kts 212°
2026-05-07 17:29 50.07793 30.75873 13506 ft 285 kts 212°
2026-05-07 17:29 50.06028 30.74175 13736 ft 310 kts 212°
2026-05-07 17:29 50.04131 30.72356 14072 ft 330 kts 212°
2026-05-07 17:29 50.02122 30.70441 14455 ft 347 kts 212°
2026-05-07 17:30 50.00023 30.68439 14894 ft 360 kts 211°
2026-05-07 17:30 49.97879 30.66402 15602 ft 364 kts 212°
2026-05-07 17:30 49.95708 30.64337 16301 ft 368 kts 212°
2026-05-07 17:30 49.93513 30.62251 16983 ft 372 kts 212°
2026-05-07 17:31 49.91292 30.60144 17644 ft 376 kts 212°
2026-05-07 17:31 49.89046 30.58016 18284 ft 380 kts 212°
2026-05-07 17:31 49.86779 30.55869 18845 ft 383 kts 212°
2026-05-07 17:31 49.84481 30.53698 19344 ft 388 kts 212°
2026-05-07 17:32 49.82170 30.51519 19914 ft 390 kts 212°
2026-05-07 17:32 49.79832 30.49315 20445 ft 393 kts 212°
2026-05-07 17:32 49.77483 30.47098 20921 ft 398 kts 212°
2026-05-07 17:32 49.75107 30.44867 21442 ft 400 kts 212°
2026-05-07 17:33 49.72709 30.42611 21860 ft 406 kts 212°
2026-05-07 17:33 49.70287 30.40343 22410 ft 408 kts 212°
2026-05-07 17:33 49.67847 30.38061 22883 ft 411 kts 212°
2026-05-07 17:33 49.65392 30.35754 23250 ft 416 kts 212°
2026-05-07 17:34 49.62910 30.33437 23688 ft 420 kts 212°
2026-05-07 17:34 49.60403 30.31091 24063 ft 422 kts 212°
2026-05-07 17:34 49.57877 30.28747 24378 ft 426 kts 213°
2026-05-07 17:34 49.57057 30.27985 24539 ft 425 kts 212°
2026-05-07 17:35 49.54479 30.25617 24921 ft 427 kts 212°
2026-05-07 17:35 49.51913 30.23258 25250 ft 430 kts 212°
2026-05-07 17:35 49.49370 30.20909 25538 ft 434 kts 212°
2026-05-07 17:35 49.46780 30.18507 25893 ft 436 kts 211°
2026-05-07 17:36 49.44178 30.16095 26214 ft 438 kts 212°
2026-05-07 17:36 49.41566 30.13659 26511 ft 441 kts 213°
2026-05-07 17:36 49.38938 30.11210 26812 ft 443 kts 212°
2026-05-07 17:36 49.36292 30.08757 27110 ft 445 kts 212°
2026-05-07 17:37 49.33626 30.06309 27378 ft 448 kts 212°
2026-05-07 17:37 49.30942 30.03853 27662 ft 450 kts 212°
2026-05-07 17:37 49.28252 30.01379 27948 ft 452 kts 212°
2026-05-07 17:37 49.25551 29.98898 28198 ft 454 kts 212°
2026-05-07 17:38 49.22837 29.96410 28488 ft 455 kts 212°
2026-05-07 17:38 49.20113 29.93915 28742 ft 457 kts 212°
2026-05-07 17:38 49.17382 29.91405 28987 ft 459 kts 212°
2026-05-07 17:38 49.14640 29.88894 29229 ft 461 kts 212°
2026-05-07 17:39 49.11883 29.86385 29438 ft 463 kts 212°
2026-05-07 17:39 49.09111 29.83861 29662 ft 464 kts 212°
2026-05-07 17:39 49.06334 29.81328 29898 ft 466 kts 212°
2026-05-07 17:39 49.03547 29.78790 30090 ft 468 kts 212°
2026-05-07 17:40 49.00748 29.76256 30309 ft 469 kts 212°
2026-05-07 17:40 48.97941 29.73717 30514 ft 470 kts 212°
2026-05-07 17:40 48.95128 29.71167 30684 ft 471 kts 212°
2026-05-07 17:40 48.92307 29.68616 30852 ft 472 kts 212°
2026-05-07 17:41 48.89482 29.66065 31004 ft 473 kts 212°
2026-05-07 17:41 48.86649 29.63510 31159 ft 474 kts 212°
2026-05-07 17:41 48.83807 29.60948 31302 ft 475 kts 212°
2026-05-07 17:41 48.80966 29.58393 31480 ft 475 kts 212°
2026-05-07 17:42 48.78116 29.55834 31610 ft 476 kts 212°
2026-05-07 17:42 48.75261 29.53273 31680 ft 478 kts 212°
2026-05-07 17:42 48.72396 29.50704 31845 ft 478 kts 212°
2026-05-07 17:42 48.69567 29.48178 32450 ft 467 kts 212°
2026-05-07 17:43 48.66799 29.45713 33105 ft 456 kts 212°
2026-05-07 17:43 48.64091 29.43299 33693 ft 448 kts 213°
2026-05-07 17:43 48.61425 29.40925 34127 ft 443 kts 213°
2026-05-07 17:43 48.58777 29.38555 34317 ft 443 kts 213°
2026-05-07 17:44 48.56129 29.36191 34500 ft 442 kts 213°
2026-05-07 17:44 48.53480 29.33834 34677 ft 442 kts 213°
2026-05-07 17:44 48.50829 29.31487 34881 ft 441 kts 213°
2026-05-07 17:44 48.48194 29.29156 35071 ft 441 kts 213°
2026-05-07 17:45 48.45546 29.26815 35260 ft 441 kts 213°
2026-05-07 17:45 48.42898 29.24481 35452 ft 440 kts 213°
2026-05-07 17:45 48.37603 29.19793 35641 ft 443 kts 213°
2026-05-07 17:46 48.34965 29.17481 36136 ft 434 kts 213°
2026-05-07 17:46 48.32388 29.15221 36627 ft 425 kts 213°
2026-05-07 17:46 48.29837 29.12980 36852 ft 424 kts 213°
2026-05-07 17:46 48.27288 29.10738 37022 ft 424 kts 213°
2026-05-07 17:47 48.24744 29.08505 37169 ft 424 kts 213°
2026-05-07 17:47 48.22198 29.06283 37363 ft 423 kts 213°
2026-05-07 17:47 48.19659 29.04063 37521 ft 422 kts 213°
2026-05-07 17:47 48.17123 29.01845 37667 ft 423 kts 213°
2026-05-07 17:48 48.14586 28.99629 37855 ft 422 kts 213°
2026-05-07 17:48 48.12050 28.97422 37966 ft 422 kts 213°
2026-05-07 17:48 48.06939 28.92977 38035 ft 428 kts 213°
2026-05-07 17:49 48.01758 28.88485 38049 ft 433 kts 213°
2026-05-07 17:49 47.96553 28.83979 38052 ft 429 kts 213°
2026-05-07 17:50 47.91424 28.79550 38042 ft 423 kts 213°
2026-05-07 17:50 47.86371 28.75195 38038 ft 416 kts 213°
2026-05-07 17:51 47.81393 28.70918 38034 ft 410 kts 213°
2026-05-07 17:51 47.76483 28.66704 38036 ft 405 kts 213°
2026-05-07 17:52 47.71601 28.62524 38038 ft 404 kts 213°
2026-05-07 17:52 47.66729 28.58363 38044 ft 404 kts 213°
2026-05-07 17:53 47.61852 28.54209 38045 ft 404 kts 213°
2026-05-07 17:53 47.56975 28.50059 38045 ft 404 kts 213°
2026-05-07 17:54 47.52096 28.45920 38044 ft 404 kts 213°
2026-05-07 17:54 47.47210 28.41784 38043 ft 404 kts 213°
2026-05-07 17:55 47.42330 28.37660 38045 ft 404 kts 213°
2026-05-07 17:55 47.37445 28.33545 38049 ft 404 kts 213°
2026-05-07 17:56 47.32559 28.29432 38048 ft 404 kts 213°
2026-05-07 17:56 47.27695 28.25348 38043 ft 406 kts 213°
2026-05-07 17:57 47.23572 28.21901 38044 ft 407 kts 213°
2026-05-07 17:57 47.17803 28.17071 38052 ft 409 kts 213°
2026-05-07 17:58 47.12839 28.12935 38067 ft 411 kts 213°
2026-05-07 17:58 47.07852 28.08786 38049 ft 412 kts 213°
2026-05-07 17:59 47.05372 28.06730 37797 ft 408 kts 213°
2026-05-07 17:59 47.02911 28.04687 37407 ft 405 kts 213°
2026-05-07 17:59 47.00495 28.02683 37029 ft 403 kts 213°
2026-05-07 17:59 46.98031 28.00642 36650 ft 401 kts 213°
2026-05-07 18:00 46.95643 27.98666 36288 ft 398 kts 213°
2026-05-07 18:00 46.93202 27.96651 35921 ft 396 kts 213°
2026-05-07 18:00 46.90799 27.94665 35566 ft 398 kts 213°
2026-05-07 18:00 46.88408 27.92687 35219 ft 401 kts 213°
2026-05-07 18:01 46.85971 27.90675 34881 ft 404 kts 213°
2026-05-07 18:01 46.83515 27.88655 34550 ft 406 kts 213°
2026-05-07 18:01 46.81048 27.86628 34214 ft 408 kts 213°
2026-05-07 18:01 46.78567 27.84592 33868 ft 410 kts 213°
2026-05-07 18:02 46.73574 27.80500 33130 ft 413 kts 213°
2026-05-07 18:02 46.71064 27.78444 32768 ft 415 kts 213°
2026-05-07 18:02 46.68529 27.76367 32130 ft 423 kts 212°
2026-05-07 18:03 46.65930 27.74241 31385 ft 434 kts 212°
2026-05-07 18:03 46.63273 27.72074 30659 ft 439 kts 212°
2026-05-07 18:03 46.60606 27.69904 29928 ft 439 kts 212°
2026-05-07 18:03 46.57940 27.67735 29105 ft 438 kts 212°
2026-05-07 18:04 46.55291 27.65579 28304 ft 436 kts 212°
2026-05-07 18:04 46.52656 27.63433 27525 ft 433 kts 211°
2026-05-07 18:04 46.50027 27.61306 26749 ft 431 kts 211°
2026-05-07 18:04 46.47414 27.59191 26009 ft 429 kts 211°
2026-05-07 18:05 46.44826 27.57100 25285 ft 422 kts 211°
2026-05-07 18:05 46.42288 27.55052 24705 ft 412 kts 211°
2026-05-07 18:05 46.39819 27.53053 24189 ft 402 kts 211°
2026-05-07 18:05 46.37406 27.51092 23695 ft 393 kts 210°
2026-05-07 18:06 46.35046 27.49198 23245 ft 383 kts 211°
2026-05-07 18:06 46.33489 27.47945 22947 ft 376 kts 211°
2026-05-07 18:06 46.30508 27.45558 22378 ft 364 kts 211°
2026-05-07 18:06 46.28320 27.43792 21951 ft 357 kts 211°
2026-05-07 18:07 46.26867 27.42618 21660 ft 352 kts 210°
2026-05-07 18:07 46.24745 27.40904 21246 ft 347 kts 210°
2026-05-07 18:07 46.22654 27.39232 20840 ft 341 kts 210°
2026-05-07 18:07 46.20595 27.37578 20440 ft 336 kts 210°
2026-05-07 18:08 46.18567 27.35956 20039 ft 331 kts 209°
2026-05-07 18:08 46.16562 27.34354 19694 ft 326 kts 210°
2026-05-07 18:08 46.14593 27.32787 19401 ft 320 kts 209°
2026-05-07 18:08 46.12659 27.31252 19104 ft 315 kts 209°
2026-05-07 18:09 46.10757 27.29742 18824 ft 310 kts 209°
2026-05-07 18:09 46.08886 27.28245 18540 ft 305 kts 209°
2026-05-07 18:09 46.07039 27.26770 18256 ft 302 kts 209°
2026-05-07 18:09 46.05215 27.25318 17924 ft 298 kts 209°
2026-05-07 18:10 46.03408 27.23884 17607 ft 295 kts 209°
2026-05-07 18:10 46.01618 27.22461 17284 ft 293 kts 209°
2026-05-07 18:10 45.99847 27.21057 17097 ft 287 kts 209°
2026-05-07 18:10 45.98128 27.19694 17012 ft 277 kts 209°
2026-05-07 18:11 45.96436 27.18352 16856 ft 279 kts 209°
2026-05-07 18:11 45.94706 27.16983 16746 ft 289 kts 209°
2026-05-07 18:11 45.92923 27.15569 16629 ft 297 kts 209°
2026-05-07 18:11 45.91112 27.14131 16508 ft 295 kts 209°
2026-05-07 18:12 45.89320 27.12713 16322 ft 294 kts 209°
2026-05-07 18:12 45.87534 27.11306 16148 ft 292 kts 208°
2026-05-07 18:12 45.85758 27.09907 15976 ft 291 kts 208°
2026-05-07 18:12 45.83993 27.08514 15792 ft 289 kts 209°
2026-05-07 18:13 45.82232 27.07124 15626 ft 288 kts 209°
2026-05-07 18:13 45.80484 27.05746 15453 ft 286 kts 208°
2026-05-07 18:13 45.78741 27.04375 15274 ft 285 kts 208°
2026-05-07 18:13 45.77004 27.03011 15103 ft 284 kts 209°
2026-05-07 18:14 45.75269 27.01653 14932 ft 284 kts 209°
2026-05-07 18:14 45.73541 27.00294 14773 ft 283 kts 209°
2026-05-07 18:14 45.71816 26.98936 14609 ft 282 kts 209°
2026-05-07 18:14 45.70098 26.97584 14447 ft 282 kts 209°
2026-05-07 18:15 45.68385 26.96238 14283 ft 281 kts 209°
2026-05-07 18:15 45.66671 26.94901 14130 ft 280 kts 209°
2026-05-07 18:15 45.64966 26.93568 13964 ft 279 kts 209°
2026-05-07 18:15 45.63264 26.92236 13780 ft 278 kts 209°
2026-05-07 18:16 45.61568 26.90910 13599 ft 277 kts 209°
2026-05-07 18:16 45.59878 26.89587 13437 ft 276 kts 209°
2026-05-07 18:16 45.58196 26.88275 13276 ft 274 kts 209°
2026-05-07 18:16 45.56526 26.86973 13115 ft 273 kts 209°
2026-05-07 18:17 45.54861 26.85679 12958 ft 272 kts 209°
2026-05-07 18:17 45.53207 26.84394 12818 ft 270 kts 209°
2026-05-07 18:17 45.51562 26.83109 12645 ft 269 kts 209°
2026-05-07 18:17 45.49924 26.81831 12495 ft 268 kts 209°
2026-05-07 18:18 45.48296 26.80566 12343 ft 266 kts 209°
2026-05-07 18:18 45.46671 26.79303 12188 ft 265 kts 209°
2026-05-07 18:18 45.45052 26.78046 12039 ft 265 kts 209°
2026-05-07 18:18 45.43437 26.76802 11878 ft 263 kts 209°
2026-05-07 18:19 45.41833 26.75557 11737 ft 262 kts 209°
2026-05-07 18:19 45.40233 26.74313 11581 ft 262 kts 209°
2026-05-07 18:19 45.38637 26.73076 11426 ft 267 kts 210°
2026-05-07 18:19 45.36965 26.71777 11289 ft 272 kts 209°
2026-05-07 18:20 45.35289 26.70484 11157 ft 276 kts 209°
2026-05-07 18:20 45.33613 26.69192 11021 ft 279 kts 209°
2026-05-07 18:20 45.31873 26.67847 10876 ft 282 kts 209°
2026-05-07 18:20 45.30163 26.66529 10749 ft 284 kts 210°
2026-05-07 18:21 45.28432 26.65192 10604 ft 283 kts 210°
2026-05-07 18:21 45.26709 26.63863 10466 ft 281 kts 210°
2026-05-07 18:21 45.24996 26.62544 10323 ft 279 kts 210°
2026-05-07 18:21 45.23292 26.61229 10185 ft 278 kts 210°
2026-05-07 18:22 45.21598 26.59934 10052 ft 276 kts 210°
2026-05-07 18:22 45.20458 26.59062 9956 ft 274 kts 210°
2026-05-07 18:22 45.18242 26.57360 9745 ft 272 kts 210°
2026-05-07 18:22 45.16587 26.56085 9594 ft 270 kts 210°
2026-05-07 18:23 45.15003 26.54683 9414 ft 267 kts 222°
2026-05-07 18:23 45.13700 26.52837 9269 ft 264 kts 228°
2026-05-07 18:23 45.12464 26.50909 9021 ft 265 kts 229°
2026-05-07 18:23 45.11224 26.48970 8772 ft 266 kts 229°
2026-05-07 18:24 45.09977 26.47031 8534 ft 266 kts 228°
2026-05-07 18:24 45.08703 26.45128 8295 ft 266 kts 227°
2026-05-07 18:24 45.07424 26.43255 8151 ft 262 kts 227°
2026-05-07 18:24 45.06171 26.41431 8078 ft 255 kts 227°
2026-05-07 18:25 45.04945 26.39668 8054 ft 248 kts 226°
2026-05-07 18:25 45.03757 26.37947 8037 ft 241 kts 227°
2026-05-07 18:25 45.02603 26.36271 8023 ft 235 kts 227°
2026-05-07 18:25 45.01474 26.34638 8022 ft 229 kts 227°
2026-05-07 18:26 45.00363 26.33030 7917 ft 229 kts 227°
2026-05-07 18:26 44.99248 26.31413 7736 ft 231 kts 227°
2026-05-07 18:26 44.98119 26.29778 7547 ft 234 kts 227°
2026-05-07 18:26 44.96978 26.28132 7360 ft 236 kts 227°
2026-05-07 18:27 44.95831 26.26471 7172 ft 237 kts 227°
2026-05-07 18:27 44.94672 26.24798 6954 ft 239 kts 227°
2026-05-07 18:27 44.93512 26.23122 6712 ft 239 kts 227°
2026-05-07 18:27 44.92344 26.21441 6409 ft 242 kts 227°
2026-05-07 18:28 44.91164 26.19736 6082 ft 244 kts 227°
2026-05-07 18:28 44.89988 26.18043 5934 ft 238 kts 227°
2026-05-07 18:28 44.88856 26.16414 5970 ft 226 kts 227°
2026-05-07 18:28 44.87786 26.14875 6023 ft 214 kts 227°
2026-05-07 18:29 44.86768 26.13410 6073 ft 204 kts 227°
2026-05-07 18:29 44.85799 26.12015 6122 ft 195 kts 227°
2026-05-07 18:29 44.84871 26.10683 6158 ft 187 kts 227°
2026-05-07 18:29 44.83914 26.09305 6236 ft 206 kts 227°
2026-05-07 18:30 44.82868 26.07803 6338 ft 223 kts 227°
2026-05-07 18:30 44.81743 26.06189 6401 ft 238 kts 227°
2026-05-07 18:30 44.80557 26.04494 6427 ft 245 kts 227°
2026-05-07 18:30 44.79370 26.02792 6423 ft 241 kts 227°
2026-05-07 18:31 44.78203 26.01117 6414 ft 238 kts 227°
2026-05-07 18:31 44.77035 25.99448 6300 ft 240 kts 227°
2026-05-07 18:31 44.75863 25.97771 6178 ft 241 kts 227°
2026-05-07 18:31 44.74670 25.96063 5923 ft 248 kts 226°
2026-05-07 18:32 44.73452 25.94325 5673 ft 251 kts 226°
2026-05-07 18:32 44.72225 25.92574 5433 ft 250 kts 226°
2026-05-07 18:32 44.71006 25.90837 5187 ft 249 kts 226°
2026-05-07 18:32 44.69809 25.89127 4938 ft 243 kts 226°
2026-05-07 18:33 44.68633 25.87451 4679 ft 238 kts 226°
2026-05-07 18:33 44.67476 25.85807 4418 ft 237 kts 225°
2026-05-07 18:33 44.66314 25.84152 4187 ft 238 kts 225°
2026-05-07 18:33 44.65162 25.82507 4077 ft 234 kts 225°
2026-05-07 18:34 44.64114 25.80808 4004 ft 228 kts 242°